This demonstration page uses our WeatherBlox Daily Observations layout. Learn more.

36.17497, -115.13722

Hourly Observations for November 21, 2018

Temp ( °F °C ) Dew Point ( °F °C ) Humidity (%) Winds ( mph kmh ) Pressure ( in mb ) Visibility ( mi km ) Precip ( " mm )
12:53 am 00:53 Clear 44 6.7 15 -9.4 31 31 NW 7 11 30.15 1021 10 16.09344 0 0
1:53 am 01:53 Clear 44 6.7 14 -10 30 30 NNW 6 9 30.15 1021 10 16.09344 0 0
2:53 am 02:53 Clear 44 6.7 13 -10.6 28 28 NW 5 7 30.15 1021 10 16.09344 0 0
3:53 am 03:53 Clear 44 6.7 14 -10 30 30 WNW 6 9 30.15 1021 10 16.09344 0 0
4:53 am 04:53 Clear 42 5.6 13 -10.6 30 30 NNW 3 6 30.15 1021 10 16.09344 0 0
5:53 am 05:53 Clear 42 5.6 15 -9.4 33 33 Calm 30.18 1022 10 16.09344 0 0
6:53 am 06:53 Sunny 41 5 15 -9.4 35 35 NW 6 9 30.21 1023 10 16.09344 0 0
7:53 am 07:53 Sunny 49 9.4 14 -10 25 25 Calm 30.21 1023 10 16.09344 0 0
8:53 am 08:53 Sunny 54 12.2 14 -10 20 20 N 5 7 30.21 1023 10 16.09344 0 0
9:53 am 09:53 Sunny 57 13.9 11 -11.7 16 16 SSE 6 9 30.21 1023 10 16.09344 0 0
10:53 am 10:53 Sunny 59 15 9 -12.8 13 13 S 3 6 30.21 1023 10 16.09344 0 0
11:53 am 11:53 Sunny 62 16.7 10 -12.2 13 13 SSE 6 9 30.15 1021 10 16.09344 0 0
12:53 pm 12:53 Sunny 64 17.8 11 -11.7 12 12 SSE 6 9 30.12 1020 10 16.09344 0 0
1:53 pm 13:53 Sunny 65 18.3 12 -11.1 13 13 SSE 8 13 30.12 1020 10 16.09344 0 0
2:53 pm 14:53 Sunny 65 18.3 12 -11.1 13 13 Calm 30.09 1019 10 16.09344 0 0
3:53 pm 15:53 Sunny 64 17.8 12 -11.1 13 13 SSE 5 7 30.09 1019 10 16.09344 0 0
4:53 pm 16:53 Clear 63 17.2 14 -10 15 15 WSW 3 6 30.09 1019 10 16.09344 0 0
5:53 pm 17:53 Clear 60 15.6 16 -8.9 18 18 Calm 30.09 1019 10 16.09344 0 0
6:53 pm 18:53 Clear 58 14.4 20 -6.7 23 23 NNE 5 7 30.09 1019 10 16.09344 0 0
7:53 pm 19:53 Clear 57 13.9 19 -7.2 23 23 Calm 30.09 1019 10 16.09344 0 0
8:53 pm 20:53 Clear 55 12.8 22 -5.6 28 28 NNE 3 6 30.09 1019 10 16.09344 0 0
9:53 pm 21:53 Partly Cloudy 56 13.3 21 -6.1 26 26 N 6 9 30.09 1019 10 16.09344 0 0
10:53 pm 22:53 Mostly Clear 56 13.3 20 -6.7 24 24 Calm 30.06 1018 10 16.09344 0 0
11:53 pm 23:53 Clear 54 12.2 19 -7.2 25 25 NNE 3 6 30.06 1018 10 16.09344 0 0

Powered by AerisWeather